| time (UTC) | temp C | wind direction | speed KPH | gust KPH | rain 1hr cm | rain 24hr cm | rain mn cm | humidity % | barometer mb |
| 20260506161007 | 10 | 60 | 19.3 | 19.3 | 0.00 | 0.00 | 0.00 | 66 | 1013.9 |
| 20260506160004 | 10 | 60 | 19.3 | 19.3 | 0.00 | 0.00 | 0.00 | 66 | 1013.9 |
| 20260506155505 | 11 | 50 | 19.3 | 19.3 | 0.00 | 0.00 | 0.00 | 57 | 1013.9 |
| 20260506154008 | 11 | 50 | 19.3 | 19.3 | 0.00 | 0.00 | 0.00 | 57 | 1013.9 |
| 20260506153503 | 11 | 50 | 19.3 | 19.3 | 0.00 | 0.00 | 0.00 | 57 | 1013.9 |
| 20260506152504 | 11 | 50 | 19.3 | 19.3 | 0.00 | 0.00 | 0.00 | 57 | 1013.9 |
| 20260506152007 | 11 | 50 | 19.3 | 19.3 | 0.00 | 0.00 | 0.00 | 57 | 1013.9 |
| 20260506151504 | 11 | 50 | 19.3 | 19.3 | 0.00 | 0.00 | 0.00 | 57 | 1013.9 |
| 20260506151007 | 11 | 50 | 19.3 | 19.3 | 0.00 | 0.00 | 0.00 | 57 | 1013.9 |
| 20260506150504 | 11 | 50 | 19.3 | 19.3 | 0.00 | 0.00 | 0.00 | 57 | 1013.9 |
| 20260506150004 | 11 | 50 | 19.3 | 19.3 | 0.00 | 0.00 | 0.00 | 57 | 1013.9 |
| 20260506145007 | 11 | 40 | 19.3 | 19.3 | 0.00 | 0.00 | 0.00 | 57 | 1014.9 |
| 20260506142007 | 11 | 40 | 19.3 | 19.3 | 0.00 | 0.00 | 0.00 | 57 | 1014.9 |
| 20260506141504 | 11 | 40 | 19.3 | 19.3 | 0.00 | 0.00 | 0.00 | 57 | 1014.9 |
| 20260506135007 | 12 | 40 | 14.5 | 14.5 | 0.00 | 0.00 | 0.00 | 50 | 1013.9 |
| 20260506134504 | 12 | 40 | 14.5 | 14.5 | 0.00 | 0.00 | 0.00 | 50 | 1013.9 |
| 20260506133007 | 12 | 40 | 14.5 | 14.5 | 0.00 | 0.00 | 0.00 | 50 | 1013.9 |
| 20260506130005 | 12 | 40 | 14.5 | 16.1 | 0.00 | 0.00 | 0.00 | 50 | 1013.9 |
| 20260506125007 | 12 | 30 | 16.1 | 16.1 | 0.00 | 0.00 | 0.00 | 50 | 1014.9 |
| 20260506124007 | 12 | 30 | 16.1 | 16.1 | 0.00 | 0.00 | 0.00 | 50 | 1014.9 |
| 20260506122007 | 12 | 30 | 16.1 | 16.1 | 0.00 | 0.00 | 0.00 | 50 | 1014.9 |
| 20260506121007 | 12 | 30 | 16.1 | 16.1 | 0.00 | 0.00 | 0.00 | 50 | 1014.9 |
| 20260506120504 | 12 | 30 | 16.1 | 16.1 | 0.00 | 0.00 | 0.00 | 50 | 1014.9 |
| 20260506120004 | 12 | 30 | 16.1 | 16.1 | 0.00 | 0.00 | 0.00 | 50 | 1014.9 |
| 20260506114008 | 11 | 30 | 16.1 | 16.1 | 0.00 | 0.00 | 0.00 | 53 | 1014.9 |
| 20260506113504 | 11 | 30 | 16.1 | 16.1 | 0.00 | 0.00 | 0.00 | 53 | 1014.9 |
| 20260506111504 | 11 | 30 | 16.1 | 16.1 | 0.00 | 0.00 | 0.00 | 53 | 1014.9 |
| 20260506105007 | 8 | 0 | 14.5 | 14.5 | 0.00 | 0.00 | 0.00 | 66 | 1014.9 |
| 20260506101007 | 8 | 0 | 14.5 | 14.5 | 0.00 | 0.00 | 0.00 | 66 | 1014.9 |
| 20260506100504 | 8 | 0 | 14.5 | 14.5 | 0.00 | 0.00 | 0.00 | 66 | 1014.9 |
| 20260506100004 | 8 | 0 | 14.5 | 14.5 | 0.00 | 0.00 | 0.00 | 66 | 1014.9 |
| 20260506094503 | 7 | 10 | 12.9 | 12.9 | 0.00 | 0.00 | 0.00 | 70 | 1014.9 |
| 20260506093007 | 7 | 10 | 12.9 | 12.9 | 0.00 | 0.00 | 0.00 | 70 | 1014.9 |
| 20260506092505 | 7 | 10 | 12.9 | 12.9 | 0.00 | 0.00 | 0.00 | 70 | 1014.9 |
| 20260506092007 | 7 | 10 | 12.9 | 12.9 | 0.00 | 0.00 | 0.00 | 70 | 1014.9 |
| 20260506090504 | 7 | 10 | 12.9 | 14.5 | 0.00 | 0.00 | 0.00 | 70 | 1014.9 |
| 20260506083007 | 8 | 30 | 14.5 | 14.5 | 0.00 | 0.00 | 0.00 | 70 | 1014.9 |
| 20260506082504 | 8 | 30 | 14.5 | 14.5 | 0.00 | 0.00 | 0.00 | 70 | 1014.9 |
| 20260506081504 | 8 | 30 | 14.5 | 14.5 | 0.00 | 0.00 | 0.00 | 70 | 1014.9 |
| 20260506081007 | 8 | 30 | 14.5 | 14.5 | 0.00 | 0.00 | 0.00 | 70 | 1014.9 |
| 20260506080504 | 8 | 30 | 14.5 | 14.5 | 0.00 | 0.00 | 0.00 | 70 | 1014.9 |
| 20260506073504 | 7 | 10 | 12.9 | 12.9 | 0.00 | 0.00 | 0.00 | 75 | 1014.9 |
| 20260506072504 | 7 | 10 | 12.9 | 12.9 | 0.00 | 0.00 | 0.00 | 75 | 1014.9 |
| 20260506072007 | 7 | 10 | 12.9 | 12.9 | 0.00 | 0.00 | 0.00 | 75 | 1014.9 |
| 20260506062505 | 8 | 40 | 19.3 | 19.3 | 0.00 | 0.00 | 0.00 | 70 | 1014.9 |
| 20260506062007 | 8 | 40 | 19.3 | 19.3 | 0.00 | 0.00 | 0.00 | 70 | 1014.9 |
| 20260506061505 | 8 | 40 | 19.3 | 19.3 | 0.00 | 0.00 | 0.00 | 70 | 1014.9 |
| 20260506061008 | 8 | 40 | 19.3 | 19.3 | 0.00 | 0.00 | 0.00 | 70 | 1014.9 |
| 20260505210004 | 8 | 40 | 19.3 | 19.3 | 0.00 | 0.00 | 0.00 | 70 | 1014.9 |
| 20260505204007 | 10 | 40 | 14.5 | 14.5 | 0.00 | 0.00 | 0.00 | 76 | 1013.9 |
| 20260505203504 | 10 | 40 | 14.5 | 14.5 | 0.00 | 0.00 | 0.00 | 76 | 1013.9 |
| 20260505202505 | 10 | 40 | 14.5 | 14.5 | 0.00 | 0.00 | 0.00 | 76 | 1013.9 |
| 20260505202007 | 10 | 40 | 14.5 | 14.5 | 0.00 | 0.00 | 0.00 | 76 | 1013.9 |
| 20260505201007 | 10 | 40 | 14.5 | 14.5 | 0.00 | 0.00 | 0.00 | 76 | 1013.9 |
| 20260505200004 | 10 | 40 | 14.5 | 19.3 | 0.00 | 0.00 | 0.00 | 76 | 1013.9 |
| 20260505195505 | 11 | 40 | 19.3 | 19.3 | 0.00 | 0.00 | 0.00 | 71 | 1013.9 |
| 20260505194504 | 11 | 40 | 19.3 | 19.3 | 0.00 | 0.00 | 0.00 | 71 | 1013.9 |
| 20260505194007 | 11 | 40 | 19.3 | 19.3 | 0.00 | 0.00 | 0.00 | 71 | 1013.9 |
| 20260505193504 | 11 | 40 | 19.3 | 19.3 | 0.00 | 0.00 | 0.00 | 71 | 1013.9 |
| 20260505193009 | 11 | 40 | 19.3 | 19.3 | 0.00 | 0.00 | 0.00 | 71 | 1013.9 |
| 20260505192007 | 11 | 40 | 19.3 | 19.3 | 0.00 | 0.00 | 0.00 | 71 | 1013.9 |
| 20260505190004 | 11 | 40 | 19.3 | 19.3 | 0.00 | 0.00 | 0.00 | 71 | 1013.9 |
| 20260505182503 | 12 | 20 | 12.9 | 12.9 | 0.00 | 0.00 | 0.00 | 57 | 1012.9 |
| 20260505175007 | 12 | 20 | 12.9 | 12.9 | 0.00 | 0.00 | 0.00 | 54 | 1012.9 |
| 20260505173504 | 12 | 20 | 12.9 | 12.9 | 0.00 | 0.00 | 0.00 | 54 | 1012.9 |
| 20260505172008 | 12 | 20 | 12.9 | 12.9 | 0.00 | 0.00 | 0.00 | 54 | 1012.9 |
| 20260505171504 | 12 | 20 | 12.9 | 12.9 | 0.00 | 0.00 | 0.00 | 54 | 1012.9 |
| 20260505171008 | 12 | 20 | 12.9 | 12.9 | 0.00 | 0.00 | 0.00 | 54 | 1012.9 |
| 20260505165007 | 12 | 340 | 12.9 | 12.9 | 0.00 | 0.00 | 0.00 | 54 | 1012.9 |
| 20260505164007 | 12 | 340 | 12.9 | 12.9 | 0.00 | 0.00 | 0.00 | 54 | 1012.9 |
| 20260505163009 | 12 | 340 | 12.9 | 12.9 | 0.00 | 0.00 | 0.00 | 54 | 1012.9 |
| 20260505161504 | 12 | 340 | 12.9 | 12.9 | 0.00 | 0.00 | 0.00 | 54 | 1012.9 |